Location: Curicchi
(45.0167°N, 12.0500°E)
Time: 00:58:56
(UTC+00:00)

NPP - Visible Passes

Search period start: 14 June 2021 00:00
Search period end: 24 June 2021 00:00
Orbit: 826 x 827 km, 98.7° (Epoch: 13 June)

Date Brightness Start Highest point End Pass type
(mag) Time Alt. Az. Time Alt. Az. Time Alt. Az.
14 Jun 4.1 01:39:35 10° N 01:44:46 48° WNW 01:48:33 18° SW visible
14 Jun 5.7 23:41:53 10° NE 23:45:20 17° E 23:48:02 12° ESE visible
15 Jun 3.7 01:20:41 10° N 01:26:04 70° WNW 01:29:32 22° SSW visible
15 Jun 6.0 23:24:40 10° ENE 23:26:17 11° E 23:27:55 10° ESE visible
16 Jun 3.6 01:01:53 10° NNE 01:07:18 83° ESE 01:10:31 25° S visible
16 Jun 5.6 02:43:37 10° NNW 02:46:50 16° WNW 02:50:02 10° W visible
17 Jun 4.0 00:43:09 10° NNE 00:48:30 58° E 00:51:31 26° S visible
17 Jun 5.2 02:24:13 10° NNW 02:28:18 22° WNW 02:32:22 10° WSW visible
18 Jun 4.6 00:24:34 10° NNE 00:29:38 40° E 00:32:29 23° SSE visible
18 Jun 4.8 02:05:02 10° N 02:09:43 31° WNW 02:13:59 12° WSW visible
19 Jun 5.1 00:06:08 10° NE 00:10:44 28° E 00:13:29 18° SE visible
19 Jun 4.3 01:46:00 10° N 01:51:04 43° WNW 01:54:59 16° SW visible
19 Jun 5.6 23:47:56 10° NE 23:51:45 19° E 23:54:27 14° SE visible
20 Jun 3.8 01:27:03 10° N 01:32:23 62° WNW 01:35:57 21° SW visible
20 Jun 5.9 23:30:16 10° ENE 23:32:43 13° E 23:35:10 10° ESE visible
21 Jun 3.6 01:08:12 10° NNE 01:13:39 87° WNW 01:16:56 25° SSW visible
22 Jun 3.9 00:49:28 10° NNE 00:54:51 66° ESE 00:57:55 26° S visible
22 Jun 5.3 02:30:44 10° NNW 02:34:33 20° WNW 02:38:23 10° WSW visible
23 Jun 4.4 00:30:50 10° NNE 00:36:00 45° E 00:38:53 24° SSE visible
23 Jun 4.9 02:11:30 10° N 02:15:59 28° WNW 02:20:23 10° WSW visible
